Home   Weather   Eferding   Past weeks

Flag for Austria Past Weather in Eferding, Upper Austria, Austria — Yesterday and Last 2 Weeks

Now
29 °F

Light snow. Overcast.


Feels Like: N/A
Forecast: 23 / 26 °F
Wind: N/A

Location: Linz / Hoersching-Flughafen

Current Time: Jan 16, 2017 at 4:16:17 pm

Latest Report: Jan 16, 2017 at 3:00 pm


Visibility: 6 mi

Pressure: 30.22 "Hg

Humidity: 79%

Dew Point: 23 °F

Location of EferdingLocation

Past Weather in Eferding — Graph

°F

Eferding Temperature Yesterday

Maximum temperature yesterday: 32 °F (at 1:00 pm)
Minimum temperature yesterday: 25 °F (at 11:00 pm)
Average temperature yesterday: 30 °F

High & Low Weather Summary for the Past Weeks

 TemperatureHumidityPressure
High40 °F (Jan 13, 11:00 am)99% (Jan 2, 10:00 pm)30.77 "Hg (Jan 2, 10:00 pm)
Low3 °F (Jan 7, 7:00 am)55% (Jan 13, 1:00 pm)29.44 "Hg (Jan 13, 4:00 am)
Average26 °F83%30.16 "Hg
* Reported Jan 1 3:00 pm — Jan 16 3:00 pm, Eferding, Weather by CustomWeather, © 2017

Note: Actual official high and low records may vary slightly from our data, if they occured in-between our weather recording intervals... More about our weather records

Advertising

Eferding Weather History for the Previous 24 Hours

Scroll right to see more
 ConditionsComfort  
Time TempWeatherWind HumidityBarometerVisibility
3:00 pm
Mon, Jan 16
29 °FLight snow. Overcast.N/A79%30.22 "Hg6 mi
2:00 pm29 °FLight snow. Overcast.N/A81%30.22 "Hg4 mi
1:00 pm28 °FOvercast.N/A87%30.22 "Hg7 mi
12:00 pm26 °FOvercast.N/A89%30.22 "Hg4 mi
11:00 am26 °FPartly sunny.N/A91%30.23 "Hg3 mi
10:00 am23 °FOvercast.N/A93%30.23 "Hg2 mi
9:00 am24 °FLight snow. Low clouds.N/A96%30.22 "Hg2 mi
8:00 am22 °FPartly sunny.N/A96%30.21 "Hg1 mi
7:00 am25 °FLight snow. Low clouds.N/A95%30.19 "Hg2 mi
6:00 am25 °FHeavy snow. Overcast.3 mph94%30.17 "Hg2 mi
5:00 am25 °FHeavy snow. Low clouds.N/A95%30.17 "Hg1 mi
4:00 am25 °FSnow flurries. Overcast.N/A94%30.18 "Hg1 mi
3:00 am24 °FOvercast.N/A93%30.19 "Hg6 mi
2:00 am25 °FPassing clouds.N/A90%30.18 "Hg8 mi
1:00 am26 °FOvercast.N/A89%30.19 "Hg11 mi
12:00 am27 °FLight snow. Overcast.3 mph90%30.19 "Hg7 mi
11:00 pm
Sun, Jan 15
25 °FOvercast.N/A93%30.20 "Hg7 mi
10:00 pm27 °FOvercast.N/A93%30.20 "Hg8 mi
9:00 pm28 °FSnow flurries. Overcast.5 mph92%30.19 "Hg1 mi
8:00 pm28 °FPassing clouds.5 mph80%30.19 "Hg28 mi
7:00 pm28 °FLight snow. Overcast.5 mph83%30.18 "Hg8 mi
6:00 pm29 °FOvercast.3 mph80%30.17 "Hg19 mi
5:00 pm30 °FPassing clouds.5 mph77%30.16 "Hg28 mi
4:00 pmN/APassing clouds.13 mphN/AN/A7 mi
Weather by CustomWeather, © 2017

See weather overviewHow to use our weather pages